Presure
149 160 171 173 175 134 146 141 134 141 173 134 162 185 182 210 200 165 186 171 126 129 146 144 206 217 214 230 234 235 238 234 230 230 237 244 125 239 245 254 263 267 127
144 169 168 166 164 166 156 188 172 140 136 141 163 183 182 201 187 189 154 160 178 179 201 203 208 206 142 113 218 229 231 232 242 226 259 235 245 226 239 247 280 260 179
137 171 164 156 167 173 185 166 166 179 178 169 178 192 196 183 144 149 180 180 193 195 111 206 210 197 213 215 218 220 220 233 226 238 260 209 237 242 240 225 241 292 168
174 160 174 194 157 180 178 155 179 178 180 179 191 141 99 137 150 189 192 178 200 143 207 213 214 211 229 216 221 214 221 226 237 224 249 244 243 230 247 248 263 241 266
156 171 177 171 167 190 188 181 172 189 192 185 193 154 128 189 181 185 189 203 199 205 207 216 219 207 206 210 218 223 224 219 233 236 250 245 231 226 259 176 252 228 275
159 183 170 182 184 184 172 177 156 192 169 179 199 117 121 183 191 194 202 198 229 124 227 221 221 223 224 217 126 221 217 220 226 223 247 234 249 221 253 257 259 261 230
176 152 184 184 179 172 175 200 186 178 173 110 133 190 194 192 194 197 204 210 235 191 87 156 227 226 181 224 225 219 223 238 242 237 234 231 216 233 219 261 272 258 254
81 171 172 187 173 170 198 134 121 185 164 78 185 193 180 199 194 207 236 239 242 122 222 228 223 223 223 226 173 227 223 223 239 237 244 227 218 214 228 252 264 267 263
169 190 188 172 177 200 163 171 125 159 178 191 192 193 206 209 235 235 239 235 230 223 114 214 212 211 210 112 222 214 214 210 184 238 221 215 235 205 226 229 270 261 263
189 184 136 101 209 152 189 183 188 186 190 130 200 201 205 234 237 229 233 224 215 214 213 213 207 206 217 213 210 220 217 227 224 230 239 246 247 226 224 237 263 268 263
186 176 167 209 191 184 187 192 190 189 191 201 201 212 228 236 231 216 216 215 211 212 206 203 207 213 208 214 222 226 226 226 231 232 242 247 246 244 244 243 263 260 267
216 211 199 183 186 193 190 188 189 191 201 198 205 220 228 209 206 217 204 211 209 204 201 208 210 210 210 224 231 227 226 230 236 245 254 247 251 253 253 253 259 262 267
199 186 191 193 187 188 190 191 195 200 209 211 220 224 225 217 215 218 203 197 201 205 207 211 209 217 225 230 241 238 235 242 249 249 251 255 254 255 259 261 263 263 262
198 195 190 190 192 195 197 201 208 210 217 221 225 227 220 214 210 211 209 210 215 213 216 219 227 229 231 239 239 239 245 251 249 252 262 264 268 272 272 273 274 275 276
194 196 199 198 201 205 208 213 212 222 230 230 225 207 204 207 212 212 214 220 219 220 218 226 238 234 241 240 233 245 249 252 264 268 268 269 269 271 273 309 300 290 291
198 201 205 206 208 216 218 228 234 228 211 192 216 220 211 219 222 216 215 217 220 226 236 242 246 251 250 246 276 269 269 264 266 274 317 298 294 285 290 289 293 289 295
210 213 212 221 224 235 231 230 222 196 216 217 216 218 221 223 224 225 228 234 242 248 252 267 268 272 280 281 271 263 266 269 266 274 281 281 290 284 284 299 303 315 306
220 222 235 238 239 195 224 223 227 221 224 224 226 226 232 238 250 259 274 280 282 293 309 309 294 290 285 292 286 276 284 277 281 264 275 279 288 288 301 350 329 354 356
236 240 228 227 224 228 223 221 229 227 238 246 256 279 295 305 307 283 278 297 313 301 289 287 286 302 296 285 278 271 274 274 277 275 276 284 290 292 419 403 418 415 408
234 225 224 231 227 233 240 250 260 265 285 288 279 296 282 297 270 277 285 310 285 282 289 291 291 307 300 286 286 281 284 273 279 279 280 287 296 286 358 405 393 379 365
237 241 242 245 272 285 285 289 274 279 282 271 277 268 290 287 271 290 280 301 281 279 284 284 290 301 289 282 279 280 277 282 287 288 290 309 307 411 390 374 359 346 338
248 287 284 282 280 292 281 276 271 282 264 270 268 268 290 268 282 279 277 289 285 286 288 287 302 302 298 300 300 297 301 307 306 377 413 386 373 364 349 332 332 328 329
306 301 288 314 291 279 280 274 265 270 277 274 265 291 280 280 293 288 293 295 297 326 327 313 301 305 309 320 326 334 323 353 398 377 365 353 323 326 336 327 319 308 299
356 344 327 307 292 284 272 276 277 289 291 282 297 287 307 291 288 293 302 320 308 317 324 321 323 329 359 373 344 387 385 376 356 329 328 337 329 314 298 286 280 280 281
323 305 313 317 315 303 301 304 315 297 293 305 291 301 300 291 294 324 346 328 332 335 344 370 377 386 380 369 353 324 316 325 333 331 315 296 283 276 276 280 280 279 275
320 314 312 305 307 315 312 307 309 306 305 311 311 301 337 342 320 349 358 362 371 400 395 380 334 331 331 323 328 329 319 300 289 279 273 272 274 272 270 274 326 368 370
Wind_Speed
52 47 47 48 49 65 64 67 67 68 54 68 58 57 57 50 53 61 60 67 58 61 70 70 65 66 66 65 64 64 62 58 56 54 51 47 79 48 45 45 51 55 84
56 51 51 51 52 57 60 63 58 69 68 67 61 62 62 59 60 63 69 70 69 67 66 67 68 69 58 61 66 62 61 59 56 57 55 50 47 52 42 45 46 54 61
58 54 55 58 57 60 69 66 63 66 66 66 68 67 64 65 71 68 72 75 72 70 57 71 71 69 72 70 68 67 65 60 59 58 58 48 53 50 51 54 46 49 76
60 54 62 77 64 72 71 69 71 70 73 73 73 72 45 74 71 73 74 70 76 67 76 74 74 73 68 70 67 69 67 64 64 61 61 58 57 56 58 54 55 49 52
59 66 73 70 71 81 80 78 74 76 78 79 77 71 72 78 79 80 78 82 80 83 81 76 75 76 75 73 70 68 68 67 67 65 63 63 60 58 61 53 60 53 56
68 79 72 80 80 81 78 80 67 83 78 82 80 64 70 84 85 86 87 86 79 52 75 76 74 72 70 71 53 71 71 72 70 67 65 64 64 63 64 64 64 63 60
77 70 84 84 82 81 83 88 85 84 85 59 82 87 89 90 91 91 93 89 77 65 47 56 72 72 67 72 72 73 73 74 73 71 69 67 67 69 66 67 66 68 67
27 82 83 91 85 84 91 78 75 89 87 37 92 93 93 96 94 98 84 80 74 57 75 75 73 74 75 76 69 76 76 76 77 75 74 75 73 71 73 72 72 71 71
88 97 95 91 93 97 88 91 85 92 94 97 98 98 103 102 94 88 82 79 77 78 70 79 79 79 79 72 81 79 80 79 68 83 79 79 79 77 81 79 75 75 75
100 98 86 60 100 75 99 99 99 99 101 91 105 105 104 98 91 89 84 83 84 83 82 84 83 84 89 85 85 89 87 91 88 89 88 86 85 85 85 85 78 79 81
99 98 99 102 103 103 103 103 104 104 107 110 109 110 106 97 94 91 89 89 87 88 87 90 93 96 90 96 99 99 98 96 97 95 94 92 92 92 91 89 83 83 83
107 104 103 105 106 106 107 107 107 110 113 112 113 113 107 96 97 98 92 95 94 94 95 100 101 101 100 107 107 106 104 103 103 101 95 96 95 94 92 92 89 87 88
107 106 107 108 109 110 112 112 115 116 117 116 118 113 110 105 104 103 98 97 100 102 103 108 106 111 114 114 110 109 109 109 107 103 101 100 99 98 97 96 95 95 96
111 110 110 111 113 115 117 119 120 120 121 120 117 115 112 108 105 105 104 107 109 109 112 114 119 118 117 114 113 115 115 111 109 111 106 104 103 101 100 100 102 103 103
115 115 115 115 117 119 121 124 123 125 122 120 115 110 110 114 112 112 112 116 117 117 117 123 121 120 118 114 115 119 116 115 107 106 106 105 107 108 107 101 103 104 104
120 121 122 121 123 127 126 130 126 121 115 113 117 118 116 124 124 120 118 122 123 128 128 125 121 118 115 116 102 106 104 105 103 105 101 101 101 102 106 104 106 106 106
125 125 126 130 130 131 127 127 123 113 121 119 119 121 124 129 129 130 133 134 131 127 124 116 115 110 99 95 98 103 103 104 105 105 101 101 106 108 113 123 122 121 114
131 133 136 138 129 115 127 128 132 122 125 127 128 131 135 135 133 130 118 112 112 106 99 90 90 90 93 95 99 102 104 103 107 102 105 104 109 111 122 116 117 116 103
129 133 129 134 127 128 124 128 133 137 141 138 136 125 118 106 103 105 110 104 102 96 94 95 96 98 101 100 97 96 102 104 107 102 103 114 114 114 88 90 81 70 65
126 121 124 138 134 139 143 143 140 136 120 116 119 111 111 108 114 115 112 103 101 101 102 102 104 105 103 105 110 111 116 109 112 112 111 117 111 104 97 77 71 68 69
127 134 137 143 131 127 121 110 123 117 116 120 119 118 107 108 117 120 113 104 110 107 107 106 112 106 107 108 107 113 112 119 121 121 121 132 100 69 71 70 69 69 72
146 121 130 122 120 109 117 118 121 118 120 121 121 120 116 118 119 117 116 121 117 118 119 118 117 111 110 114 118 120 125 129 125 93 67 73 75 77 76 75 72 72 72
116 120 121 104 105 113 112 119 123 121 118 123 125 123 121 123 121 122 126 125 129 128 119 109 111 115 115 115 116 117 114 112 76 76 76 77 79 77 73 73 73 73 74
86 91 94 100 105 113 120 123 125 124 122 119 126 123 119 125 124 129 128 121 111 108 108 109 111 114 113 104 104 82 79 78 81 82 80 76 75 74 75 76 78 79 78
88 95 94 102 110 114 121 125 127 122 120 126 124 127 127 122 126 124 114 117 114 113 111 100 93 86 84 82 80 82 84 84 82 80 78 77 79 79 80 81 83 83 81
94 97 101 105 110 114 116 118 119 121 125 127 130 126 114 106 116 108 104 105 101 85 78 79 83 82 81 83 84 84 84 84 84 83 82 83 84 84 83 84 87 87 85
Wind_Direction
272 277 287 289 292 281 276 280 284 281 290 285 283 298 295 302 298 286 292 286 284 284 278 278 299 302 300 300 297 296 296 294 289 285 286 281 247 274 270 263 259 257 247
277 284 286 285 283 286 277 302 292 285 287 289 286 297 296 301 293 294 283 284 289 292 297 298 300 298 278 263 298 296 295 294 294 284 296 280 280 265 270 270 269 257 260
275 286 283 277 285 293 302 287 289 296 296 291 296 299 299 292 282 287 291 291 295 299 272 299 298 294 297 296 294 294 292 295 289 294 298 288 280 280 272 259 269 269 255
287 277 293 302 286 299 296 280 296 296 297 296 299 282 272 283 287 295 295 292 301 287 301 298 296 295 295 291 292 290 292 293 299 289 295 292 288 273 286 279 275 264 262
282 294 297 294 291 298 298 296 294 299 300 298 300 291 286 296 293 294 298 302 301 300 298 295 293 291 290 290 292 294 295 293 298 296 292 289 283 280 286 272 280 264 269
284 291 289 292 294 295 292 294 294 299 295 294 301 284 284 294 298 300 301 300 297 284 294 293 294 294 294 292 282 294 293 293 293 292 291 287 288 277 283 282 278 274 259
289 280 291 292 292 290 292 298 295 293 290 286 286 297 299 298 299 300 300 299 297 292 274 285 296 295 291 295 294 293 293 296 294 292 288 284 279 284 276 280 274 273 269
282 289 290 293 290 289 296 287 289 294 288 285 296 297 295 298 298 299 300 299 298 284 297 299 297 299 298 299 290 296 294 293 297 294 290 285 280 277 282 280 275 271 269
287 290 291 289 290 296 286 289 286 287 293 296 296 297 299 300 302 300 300 299 299 298 275 295 294 292 290 275 298 291 289 290 288 293 285 282 284 276 281 281 274 271 267
287 289 286 285 295 292 293 293 294 295 296 287 298 298 299 303 301 300 300 299 297 297 295 296 291 290 297 292 289 294 290 293 290 292 290 287 283 280 279 280 275 270 267
287 287 286 293 291 292 293 294 295 296 297 298 298 300 303 302 300 300 299 298 296 297 293 292 294 296 290 294 295 294 293 291 291 290 289 285 283 281 279 278 274 270 267
292 291 290 290 291 292 293 294 294 295 297 296 298 301 302 297 296 301 294 298 298 294 292 295 294 293 292 295 293 292 291 291 291 289 285 283 281 280 278 277 274 272 270
287 287 289 291 292 292 293 293 294 295 297 298 300 299 299 298 298 297 294 290 292 292 293 293 292 294 294 294 291 291 290 290 288 287 285 282 279 277 276 273 271 267 264
288 289 289 289 290 291 292 293 294 296 297 298 297 297 297 295 294 293 293 293 293 292 293 293 294 293 293 291 290 290 289 288 288 285 283 281 280 277 275 274 271 269 266
287 288 289 290 291 292 293 294 294 295 296 295 294 292 291 291 292 292 293 294 293 293 292 293 292 292 289 289 290 289 287 285 283 282 282 281 279 278 277 278 273 270 270
289 289 289 290 291 292 293 293 293 293 290 287 292 293 291 294 293 292 292 292 292 292 291 290 287 286 287 287 279 280 280 281 281 280 281 276 278 279 280 278 276 272 271
287 288 288 290 291 292 292 292 290 287 290 290 291 292 292 291 291 292 290 289 288 288 287 286 283 281 280 278 277 279 280 280 280 282 284 285 284 283 284 284 280 277 273
288 289 290 290 291 286 290 290 290 289 290 289 291 291 289 288 286 286 286 286 286 284 282 283 280 280 279 276 273 275 276 277 279 280 283 286 288 289 288 281 281 277 277
286 287 288 288 289 290 288 288 290 291 289 288 287 287 287 285 282 285 289 287 284 287 288 288 287 285 282 281 280 279 280 280 280 280 285 287 288 290 282 283 278 276 275
286 285 287 289 289 289 288 287 287 288 287 286 290 290 292 285 292 291 290 288 290 289 287 288 289 283 279 279 279 279 280 279 282 281 284 285 284 283 283 277 276 276 274
287 287 287 287 284 286 285 279 288 286 283 289 288 290 284 279 290 287 290 286 287 287 287 287 290 282 280 279 278 278 279 280 280 280 282 282 281 275 274 274 274 272 269
287 284 284 283 283 274 280 281 284 283 288 286 287 288 282 289 286 289 291 287 287 287 286 286 284 278 276 275 274 275 275 276 278 279 274 276 275 274 274 273 272 270 268
276 275 278 268 270 275 273 277 283 282 280 279 283 280 281 284 282 287 287 287 286 283 279 277 276 275 276 278 278 277 276 281 279 278 276 275 273 273 273 272 271 270 269
265 265 263 262 265 268 274 274 278 276 277 281 279 282 277 281 281 283 283 283 280 281 282 282 282 280 281 282 280 278 277 276 275 274 274 274 272 271 271 272 272 271 269
269 270 265 263 263 264 265 268 270 275 278 275 280 278 280 282 282 281 278 281 282 282 282 283 281 279 280 279 278 278 277 275 275 274 274 273 272 272 271 270 269 270 271
270 269 269 270 270 268 269 272 273 274 277 277 278 279 278 276 278 281 282 283 284 283 280 281 279 279 279 278 277 276 275 274 274 274 274 273 272 272 272 272 272 273 272